GFSNE_prec_precacc_072.txt.gz
Total_Precipitation_Accumulation
0.33 0.31 0.26 0.24 0.22 0.18 0.17 0.24 0.37 0.21 0.02 0.00 0.02 0.05 0.11 0.15 0.21 0.35 0.47 0.44 0.37 0.35 0.38 0.33 0.25 0.28 0.50 0.62 0.68 0.81 1.01 1.06 0.87 0.74 0.64 0.65 0.77 0.84
0.14 0.11 0.09 0.07 0.06 0.08 0.09 0.08 0.09 0.16 0.09 0.00 0.00 0.00 0.00 0.03 0.09 0.19 0.40 0.51 0.34 0.29 0.35 0.41 0.44 0.42 0.38 0.58 0.86 0.91 0.94 1.04 1.03 0.99 0.98 0.75 0.71 0.80
0.02 0.02 0.02 0.02 0.01 0.01 0.02 0.03 0.05 0.07 0.04 0.00 0.00 0.00 0.00 0.01 0.03 0.10 0.22 0.43 0.54 0.38 0.27 0.33 0.41 0.47 0.53 0.47 0.51 0.85 1.20 1.08 0.87 0.78 0.80 0.89 0.89 0.80
0.01 0.00 0.00 0.00 0.00 0.00 0.01 0.01 0.01 0.01 0.03 0.02 0.00 0.00 0.00 0.00 0.01 0.03 0.10 0.24 0.42 0.53 0.49 0.31 0.26 0.33 0.42 0.55 0.56 0.55 0.71 1.17 1.17 0.86 0.70 0.75 0.88 1.02
0.00 0.00 0.00 0.00 0.00 0.00 0.00 0.01 0.01 0.01 0.02 0.04 0.01 0.00 0.00 0.00 0.00 0.02 0.03 0.07 0.16 0.30 0.43 0.55 0.45 0.28 0.28 0.32 0.42 0.53 0.50 0.50 0.85 1.10 0.90 0.73 0.69 0.75
0.01 0.01 0.00 0.00 0.00 0.00 0.01 0.01 0.02 0.03 0.03 0.04 0.02 0.01 0.00 0.00 0.02 0.03 0.04 0.05 0.06 0.13 0.31 0.49 0.55 0.48 0.31 0.24 0.28 0.31 0.40 0.52 0.54 0.69 1.04 1.04 0.81 0.80
0.00 0.00 0.00 0.00 0.00 0.01 0.02 0.01 0.03 0.04 0.04 0.06 0.05 0.03 0.02 0.02 0.04 0.06 0.08 0.06 0.07 0.09 0.18 0.36 0.52 0.60 0.61 0.38 0.22 0.25 0.31 0.34 0.43 0.53 0.61 0.83 1.09 0.94
0.01 0.00 0.00 0.00 0.01 0.01 0.00 0.00 0.02 0.06 0.10 0.13 0.12 0.10 0.06 0.06 0.10 0.15 0.14 0.12 0.12 0.11 0.16 0.27 0.43 0.54 0.66 0.69 0.51 0.35 0.27 0.32 0.35 0.41 0.51 0.54 0.63 1.00
0.01 0.01 0.01 0.00 0.00 0.01 0.01 0.01 0.01 0.02 0.09 0.18 0.27 0.16 0.16 0.11 0.12 0.17 0.14 0.16 0.13 0.08 0.16 0.26 0.35 0.46 0.50 0.68 0.72 0.52 0.44 0.45 0.48 0.47 0.46 0.54 0.53 0.57
0.01 0.01 0.02 0.01 0.01 0.03 0.07 0.13 0.09 0.05 0.04 0.05 0.14 0.12 0.08 0.07 0.13 0.18 0.25 0.29 0.20 0.07 0.12 0.35 0.26 0.38 0.39 0.46 0.67 0.86 0.73 0.61 0.63 0.69 0.63 0.57 0.64 0.62
0.01 0.02 0.04 0.06 0.04 0.08 0.31 0.39 0.18 0.07 0.04 0.06 0.08 0.08 0.08 0.09 0.15 0.46 0.53 0.57 0.41 0.15 0.15 0.28 0.20 0.29 0.38 0.51 0.65 0.70 0.89 0.96 0.80 0.76 0.78 0.69 0.63 0.68
0.05 0.04 0.03 0.04 0.11 0.19 0.45 0.48 0.40 0.11 0.04 0.07 0.07 0.05 0.05 0.08 0.09 0.35 0.50 0.60 0.39 0.31 0.12 0.27 0.19 0.26 0.51 0.52 0.52 0.71 0.82 0.86 0.93 0.86 0.75 0.76 0.73 0.74
0.10 0.06 0.07 0.20 0.28 0.22 0.25 0.40 0.37 0.15 0.12 0.15 0.16 0.15 0.15 0.15 0.16 0.22 0.36 0.60 0.54 0.33 0.05 0.33 0.32 0.22 0.41 0.45 0.57 0.63 0.74 0.90 0.94 1.01 0.96 0.82 0.76 0.71
0.23 0.17 0.23 0.18 0.19 0.17 0.20 0.28 0.24 0.22 0.33 0.37 0.34 0.26 0.27 0.23 0.20 0.22 0.24 0.29 0.31 0.31 0.16 0.52 0.69 0.27 0.41 0.45 0.40 0.61 0.77 0.93 1.12 0.97 0.98 1.02 0.95 0.89
0.28 0.24 0.18 0.16 0.15 0.16 0.18 0.24 0.29 0.47 0.49 0.43 0.34 0.22 0.17 0.17 0.17 0.24 0.30 0.36 0.37 0.38 0.33 0.43 0.39 0.23 0.37 0.44 0.41 0.49 0.76 0.89 0.81 0.77 0.81 0.83 0.79 0.75
0.17 0.16 0.20 0.19 0.18 0.24 0.29 0.28 0.46 0.54 0.47 0.40 0.26 0.21 0.23 0.25 0.27 0.29 0.31 0.36 0.66 0.70 0.45 0.36 0.30 0.38 0.46 0.31 0.25 0.33 0.37 0.62 0.76 0.74 0.71 0.78 0.80 0.73
0.27 0.31 0.22 0.16 0.16 0.17 0.21 0.17 0.18 0.17 0.24 0.23 0.25 0.23 0.29 0.23 0.25 0.30 0.31 0.26 0.43 0.34 0.45 0.44 0.41 0.42 0.42 0.41 0.52 0.32 0.36 0.47 0.58 0.59 0.60 0.67 0.75 0.85
0.42 0.32 0.24 0.25 0.26 0.24 0.27 0.26 0.15 0.15 0.13 0.15 0.24 0.20 0.24 0.30 0.21 0.17 0.22 0.29 0.24 0.30 0.30 0.31 0.40 0.70 0.68 0.45 0.32 0.45 0.88 0.81 0.57 0.41 0.47 0.60 0.71 0.72
0.47 0.34 0.32 0.34 0.33 0.30 0.27 0.27 0.29 0.30 0.22 0.21 0.25 0.26 0.20 0.22 0.31 0.22 0.23 0.33 0.31 0.24 0.34 0.39 0.40 0.45 0.65 0.78 0.36 0.25 0.45 0.40 0.39 0.37 0.43 0.56 0.72 0.68
0.26 0.28 0.29 0.26 0.23 0.19 0.19 0.23 0.23 0.25 0.23 0.21 0.29 0.23 0.19 0.15 0.17 0.17 0.18 0.19 0.21 0.19 0.17 0.22 0.26 0.29 0.40 0.45 0.52 0.33 0.27 0.24 0.30 0.34 0.43 0.51 0.54 0.57
0.20 0.22 0.25 0.24 0.20 0.17 0.19 0.21 0.24 0.24 0.23 0.22 0.23 0.21 0.17 0.17 0.13 0.12 0.10 0.10 0.11 0.13 0.18 0.20 0.19 0.19 0.26 0.34 0.46 0.47 0.43 0.29 0.19 0.25 0.31 0.50 0.51 0.39
0.25 0.25 0.20 0.22 0.23 0.20 0.19 0.19 0.19 0.18 0.17 0.16 0.18 0.17 0.18 0.17 0.14 0.15 0.13 0.11 0.13 0.13 0.13 0.13 0.16 0.15 0.26 0.29 0.43 0.38 0.35 0.36 0.26 0.19 0.24 0.32 0.42 0.48
0.25 0.25 0.20 0.19 0.20 0.22 0.22 0.21 0.18 0.18 0.19 0.19 0.16 0.18 0.20 0.19 0.17 0.16 0.14 0.10 0.09 0.08 0.08 0.12 0.14 0.12 0.15 0.12 0.25 0.33 0.18 0.22 0.25 0.16 0.15 0.20 0.21 0.25

GFSNE_prec_precacc_075.txt.gz
Total_Precipitation_Accumulation
0.33 0.31 0.26 0.24 0.22 0.18 0.17 0.24 0.37 0.21 0.02 0.00 0.02 0.05 0.11 0.15 0.21 0.35 0.47 0.44 0.37 0.35 0.38 0.33 0.25 0.28 0.50 0.62 0.68 0.81 1.01 1.06 0.87 0.74 0.64 0.65 0.77 0.84
0.14 0.11 0.09 0.07 0.06 0.08 0.09 0.08 0.09 0.16 0.09 0.00 0.00 0.00 0.00 0.03 0.09 0.19 0.40 0.51 0.34 0.29 0.35 0.41 0.44 0.42 0.38 0.58 0.86 0.91 0.94 1.04 1.03 1.00 0.98 0.75 0.71 0.80
0.02 0.02 0.02 0.02 0.01 0.01 0.02 0.03 0.05 0.07 0.04 0.00 0.00 0.00 0.00 0.01 0.03 0.10 0.22 0.43 0.54 0.38 0.27 0.33 0.41 0.47 0.53 0.47 0.51 0.85 1.20 1.08 0.87 0.78 0.80 0.89 0.89 0.81
0.01 0.00 0.00 0.00 0.00 0.00 0.01 0.01 0.01 0.01 0.03 0.02 0.00 0.00 0.00 0.00 0.01 0.03 0.10 0.24 0.42 0.53 0.49 0.31 0.26 0.33 0.42 0.55 0.56 0.55 0.71 1.17 1.17 0.86 0.70 0.75 0.88 1.02
0.00 0.00 0.00 0.00 0.00 0.00 0.00 0.01 0.01 0.01 0.02 0.04 0.01 0.00 0.00 0.00 0.01 0.02 0.03 0.07 0.16 0.30 0.43 0.55 0.45 0.28 0.28 0.32 0.42 0.53 0.50 0.50 0.85 1.10 0.90 0.73 0.69 0.75
0.01 0.01 0.00 0.00 0.00 0.00 0.01 0.01 0.02 0.03 0.03 0.04 0.02 0.01 0.00 0.00 0.03 0.04 0.04 0.06 0.06 0.13 0.31 0.49 0.55 0.48 0.31 0.24 0.28 0.31 0.40 0.52 0.54 0.69 1.04 1.04 0.81 0.80
0.00 0.00 0.00 0.00 0.00 0.01 0.02 0.01 0.03 0.04 0.04 0.06 0.05 0.04 0.03 0.03 0.06 0.08 0.09 0.07 0.07 0.09 0.18 0.36 0.52 0.60 0.61 0.38 0.22 0.25 0.31 0.34 0.43 0.53 0.61 0.83 1.09 0.94
0.01 0.00 0.00 0.00 0.01 0.01 0.00 0.00 0.02 0.06 0.11 0.14 0.14 0.13 0.08 0.08 0.12 0.16 0.14 0.12 0.12 0.11 0.16 0.27 0.43 0.54 0.66 0.69 0.51 0.35 0.27 0.32 0.35 0.41 0.51 0.54 0.63 1.00
0.01 0.01 0.01 0.00 0.00 0.01 0.01 0.01 0.01 0.02 0.09 0.18 0.28 0.18 0.18 0.13 0.13 0.17 0.14 0.16 0.13 0.08 0.16 0.26 0.35 0.46 0.50 0.68 0.72 0.52 0.44 0.45 0.48 0.47 0.46 0.54 0.53 0.57
0.01 0.01 0.02 0.01 0.01 0.03 0.07 0.14 0.09 0.06 0.05 0.05 0.15 0.13 0.08 0.08 0.13 0.19 0.25 0.29 0.20 0.07 0.12 0.35 0.26 0.38 0.39 0.46 0.67 0.86 0.73 0.61 0.63 0.69 0.63 0.57 0.64 0.62
0.01 0.02 0.04 0.06 0.04 0.08 0.31 0.40 0.18 0.08 0.05 0.06 0.08 0.08 0.08 0.09 0.15 0.46 0.53 0.58 0.41 0.15 0.15 0.28 0.20 0.29 0.38 0.51 0.65 0.70 0.89 0.96 0.80 0.76 0.78 0.69 0.63 0.68
0.05 0.04 0.03 0.04 0.11 0.19 0.45 0.50 0.43 0.11 0.05 0.08 0.07 0.05 0.05 0.08 0.09 0.35 0.50 0.60 0.40 0.31 0.12 0.27 0.19 0.26 0.51 0.52 0.52 0.71 0.82 0.86 0.94 0.87 0.75 0.76 0.74 0.74
0.10 0.06 0.07 0.20 0.28 0.22 0.26 0.42 0.39 0.16 0.13 0.18 0.19 0.17 0.16 0.15 0.16 0.22 0.36 0.61 0.55 0.34 0.05 0.34 0.33 0.22 0.41 0.45 0.57 0.63 0.74 0.90 0.95 1.01 0.97 0.84 0.77 0.72
0.23 0.17 0.23 0.18 0.19 0.17 0.20 0.29 0.24 0.24 0.37 0.41 0.38 0.29 0.29 0.23 0.20 0.22 0.24 0.29 0.31 0.31 0.17 0.52 0.69 0.28 0.41 0.45 0.41 0.61 0.77 0.93 1.13 0.97 1.00 1.04 0.97 0.90
0.28 0.25 0.18 0.16 0.15 0.16 0.18 0.25 0.30 0.52 0.55 0.49 0.39 0.25 0.19 0.18 0.18 0.25 0.30 0.37 0.38 0.38 0.33 0.43 0.40 0.23 0.37 0.45 0.41 0.49 0.76 0.89 0.82 0.78 0.83 0.85 0.80 0.76
0.17 0.17 0.20 0.20 0.18 0.25 0.29 0.29 0.48 0.56 0.49 0.43 0.29 0.24 0.26 0.28 0.30 0.30 0.32 0.37 0.67 0.70 0.45 0.36 0.30 0.38 0.46 0.31 0.26 0.33 0.37 0.62 0.77 0.75 0.73 0.78 0.81 0.74
0.27 0.31 0.24 0.18 0.18 0.19 0.23 0.19 0.20 0.19 0.25 0.24 0.26 0.24 0.31 0.26 0.28 0.31 0.32 0.28 0.45 0.35 0.46 0.44 0.41 0.42 0.42 0.41 0.53 0.32 0.37 0.47 0.59 0.63 0.62 0.68 0.76 0.90
0.42 0.32 0.24 0.26 0.28 0.26 0.31 0.32 0.21 0.18 0.15 0.16 0.24 0.20 0.25 0.32 0.23 0.19 0.24 0.31 0.25 0.30 0.31 0.31 0.40 0.70 0.69 0.46 0.32 0.45 0.90 0.83 0.60 0.43 0.47 0.61 0.71 0.74
0.47 0.34 0.33 0.34 0.34 0.31 0.29 0.32 0.36 0.39 0.29 0.25 0.29 0.29 0.21 0.23 0.33 0.25 0.25 0.35 0.33 0.24 0.34 0.40 0.41 0.46 0.65 0.78 0.37 0.26 0.46 0.41 0.40 0.38 0.44 0.57 0.73 0.69
0.26 0.28 0.29 0.26 0.23 0.20 0.20 0.23 0.24 0.27 0.28 0.27 0.35 0.28 0.24 0.18 0.20 0.19 0.20 0.21 0.22 0.20 0.18 0.22 0.27 0.29 0.40 0.45 0.53 0.33 0.27 0.24 0.31 0.35 0.44 0.51 0.54 0.57
0.20 0.22 0.25 0.25 0.20 0.17 0.20 0.22 0.25 0.27 0.27 0.28 0.29 0.26 0.20 0.21 0.17 0.14 0.12 0.11 0.12 0.14 0.19 0.20 0.19 0.19 0.26 0.34 0.47 0.48 0.47 0.29 0.19 0.25 0.31 0.50 0.51 0.41
0.25 0.25 0.21 0.22 0.24 0.21 0.19 0.20 0.20 0.20 0.20 0.20 0.23 0.22 0.23 0.23 0.19 0.18 0.15 0.13 0.14 0.13 0.13 0.14 0.16 0.15 0.26 0.30 0.44 0.39 0.39 0.42 0.26 0.19 0.24 0.33 0.42 0.48
0.26 0.25 0.21 0.20 0.20 0.22 0.23 0.21 0.19 0.19 0.22 0.22 0.20 0.22 0.26 0.26 0.23 0.20 0.16 0.12 0.10 0.09 0.09 0.12 0.14 0.12 0.15 0.12 0.25 0.34 0.20 0.24 0.28 0.17 0.17 0.21 0.21 0.25

GFSNE_prec_precacc_081.txt.gz
Total_Precipitation_Accumulation
0.34 0.32 0.27 0.25 0.22 0.18 0.17 0.24 0.37 0.21 0.02 0.00 0.02 0.05 0.11 0.15 0.21 0.35 0.47 0.44 0.37 0.35 0.38 0.33 0.25 0.28 0.50 0.62 0.68 0.81 1.01 1.06 0.87 0.74 0.64 0.65 0.77 0.84
0.18 0.12 0.09 0.07 0.06 0.08 0.09 0.08 0.09 0.16 0.09 0.00 0.00 0.00 0.00 0.03 0.09 0.19 0.40 0.51 0.34 0.29 0.35 0.41 0.44 0.42 0.38 0.58 0.86 0.91 0.94 1.04 1.03 1.00 0.98 0.75 0.71 0.81
0.05 0.04 0.02 0.02 0.01 0.01 0.02 0.03 0.05 0.07 0.04 0.00 0.00 0.00 0.00 0.01 0.03 0.10 0.22 0.43 0.54 0.38 0.27 0.33 0.41 0.47 0.53 0.47 0.51 0.85 1.20 1.08 0.87 0.78 0.80 0.89 0.89 0.81
0.01 0.00 0.00 0.00 0.00 0.00 0.01 0.01 0.01 0.01 0.03 0.02 0.00 0.00 0.00 0.00 0.01 0.03 0.10 0.24 0.42 0.53 0.49 0.31 0.26 0.33 0.42 0.55 0.56 0.55 0.71 1.17 1.17 0.86 0.70 0.75 0.89 1.02
0.00 0.00 0.00 0.00 0.00 0.00 0.00 0.01 0.01 0.01 0.02 0.04 0.01 0.00 0.00 0.00 0.01 0.02 0.04 0.07 0.16 0.30 0.43 0.55 0.45 0.28 0.28 0.32 0.42 0.53 0.50 0.50 0.85 1.10 0.90 0.73 0.70 0.75
0.01 0.01 0.00 0.00 0.00 0.00 0.01 0.01 0.02 0.03 0.03 0.04 0.02 0.01 0.00 0.00 0.03 0.05 0.05 0.06 0.06 0.13 0.31 0.49 0.55 0.48 0.31 0.24 0.28 0.31 0.40 0.52 0.54 0.69 1.04 1.04 0.81 0.80
0.00 0.00 0.00 0.00 0.00 0.01 0.02 0.01 0.03 0.04 0.04 0.06 0.05 0.04 0.03 0.04 0.06 0.09 0.10 0.07 0.08 0.09 0.19 0.36 0.52 0.60 0.61 0.38 0.22 0.25 0.32 0.34 0.43 0.53 0.61 0.83 1.09 0.94
0.01 0.00 0.00 0.00 0.01 0.01 0.00 0.00 0.02 0.06 0.11 0.14 0.14 0.13 0.08 0.09 0.14 0.18 0.18 0.15 0.15 0.12 0.16 0.27 0.43 0.54 0.66 0.69 0.51 0.35 0.27 0.32 0.35 0.41 0.51 0.54 0.63 1.00
0.01 0.01 0.01 0.00 0.00 0.01 0.01 0.01 0.01 0.02 0.09 0.19 0.29 0.18 0.18 0.14 0.15 0.19 0.16 0.16 0.13 0.08 0.16 0.26 0.35 0.46 0.50 0.68 0.72 0.52 0.44 0.45 0.48 0.47 0.46 0.54 0.53 0.57
0.01 0.01 0.02 0.01 0.01 0.03 0.07 0.14 0.09 0.07 0.06 0.06 0.16 0.13 0.09 0.08 0.15 0.20 0.26 0.29 0.20 0.07 0.12 0.35 0.27 0.38 0.40 0.46 0.67 0.86 0.73 0.61 0.63 0.69 0.63 0.57 0.64 0.62
0.01 0.02 0.04 0.06 0.04 0.08 0.31 0.40 0.18 0.08 0.05 0.06 0.09 0.09 0.08 0.10 0.16 0.48 0.55 0.59 0.42 0.15 0.15 0.28 0.20 0.29 0.38 0.51 0.65 0.70 0.89 0.96 0.80 0.77 0.79 0.70 0.64 0.68
0.05 0.04 0.03 0.04 0.11 0.19 0.45 0.50 0.43 0.12 0.05 0.09 0.10 0.07 0.05 0.09 0.11 0.38 0.54 0.65 0.41 0.32 0.12 0.27 0.19 0.26 0.51 0.52 0.52 0.71 0.82 0.86 0.94 0.87 0.76 0.78 0.75 0.75
0.10 0.06 0.07 0.20 0.28 0.22 0.26 0.42 0.39 0.16 0.13 0.18 0.20 0.19 0.17 0.16 0.17 0.22 0.36 0.61 0.55 0.34 0.05 0.34 0.33 0.22 0.41 0.45 0.57 0.63 0.74 0.90 0.95 1.02 0.97 0.84 0.78 0.74
0.23 0.17 0.23 0.18 0.19 0.17 0.20 0.29 0.24 0.24 0.38 0.43 0.40 0.30 0.30 0.25 0.22 0.24 0.26 0.30 0.31 0.31 0.17 0.52 0.70 0.28 0.41 0.45 0.41 0.61 0.77 0.93 1.13 0.97 1.00 1.05 0.98 0.92
0.28 0.25 0.18 0.16 0.15 0.16 0.18 0.25 0.30 0.52 0.56 0.52 0.41 0.27 0.20 0.19 0.20 0.28 0.33 0.39 0.39 0.38 0.33 0.43 0.40 0.24 0.37 0.45 0.42 0.49 0.76 0.89 0.82 0.78 0.84 0.85 0.81 0.76
0.17 0.17 0.20 0.20 0.18 0.25 0.30 0.30 0.49 0.57 0.51 0.47 0.33 0.27 0.28 0.31 0.32 0.32 0.38 0.42 0.73 0.72 0.45 0.36 0.30 0.39 0.47 0.31 0.26 0.33 0.37 0.62 0.77 0.75 0.73 0.79 0.81 0.74
0.27 0.31 0.24 0.19 0.18 0.19 0.24 0.19 0.21 0.21 0.30 0.30 0.31 0.28 0.33 0.28 0.29 0.33 0.35 0.30 0.49 0.36 0.46 0.44 0.41 0.42 0.43 0.41 0.53 0.32 0.37 0.47 0.59 0.64 0.71 0.73 0.76 0.90
0.42 0.32 0.25 0.26 0.28 0.26 0.31 0.32 0.22 0.22 0.21 0.25 0.33 0.30 0.35 0.42 0.33 0.25 0.27 0.32 0.27 0.31 0.31 0.31 0.40 0.71 0.69 0.46 0.32 0.45 0.90 0.83 0.61 0.44 0.49 0.61 0.71 0.74
0.47 0.34 0.33 0.35 0.34 0.31 0.30 0.32 0.36 0.39 0.34 0.36 0.40 0.39 0.32 0.31 0.39 0.30 0.30 0.39 0.35 0.25 0.34 0.40 0.41 0.47 0.66 0.79 0.37 0.26 0.46 0.41 0.40 0.38 0.45 0.57 0.73 0.69
0.26 0.28 0.29 0.26 0.24 0.20 0.20 0.24 0.25 0.28 0.29 0.27 0.37 0.32 0.31 0.29 0.32 0.31 0.29 0.29 0.30 0.24 0.19 0.23 0.27 0.29 0.40 0.46 0.53 0.33 0.27 0.24 0.31 0.36 0.44 0.51 0.55 0.57
0.20 0.22 0.25 0.25 0.20 0.18 0.20 0.22 0.26 0.28 0.28 0.29 0.31 0.30 0.25 0.28 0.24 0.23 0.22 0.18 0.16 0.17 0.22 0.20 0.19 0.19 0.26 0.34 0.47 0.48 0.48 0.30 0.20 0.26 0.31 0.50 0.51 0.41
0.26 0.25 0.21 0.23 0.24 0.21 0.20 0.21 0.20 0.21 0.21 0.22 0.26 0.26 0.28 0.29 0.28 0.26 0.24 0.22 0.20 0.15 0.14 0.14 0.16 0.15 0.26 0.30 0.44 0.39 0.40 0.46 0.26 0.19 0.24 0.33 0.42 0.48
0.26 0.26 0.21 0.20 0.21 0.23 0.23 0.22 0.19 0.20 0.22 0.23 0.23 0.24 0.29 0.30 0.28 0.28 0.26 0.22 0.21 0.19 0.11 0.12 0.14 0.12 0.15 0.12 0.25 0.34 0.20 0.25 0.29 0.19 0.17 0.21 0.21 0.25

GFSNE_prec_precacc_084.txt.gz
Total_Precipitation_Accumulation
0.50 0.42 0.31 0.26 0.23 0.18 0.17 0.24 0.37 0.21 0.02 0.00 0.02 0.05 0.11 0.15 0.21 0.35 0.47 0.44 0.37 0.35 0.38 0.33 0.25 0.28 0.50 0.62 0.68 0.81 1.01 1.06 0.87 0.74 0.64 0.65 0.77 0.84
0.27 0.19 0.13 0.09 0.08 0.09 0.10 0.08 0.09 0.16 0.09 0.00 0.00 0.00 0.00 0.03 0.09 0.19 0.40 0.51 0.34 0.29 0.35 0.41 0.44 0.43 0.38 0.58 0.86 0.91 0.94 1.04 1.03 1.00 0.98 0.75 0.71 0.81
0.07 0.05 0.03 0.02 0.01 0.01 0.02 0.03 0.05 0.07 0.04 0.00 0.00 0.00 0.00 0.01 0.03 0.10 0.22 0.43 0.54 0.38 0.27 0.33 0.42 0.48 0.53 0.48 0.51 0.85 1.20 1.08 0.87 0.78 0.80 0.89 0.89 0.81
0.02 0.01 0.00 0.00 0.00 0.00 0.01 0.01 0.01 0.01 0.03 0.02 0.00 0.00 0.00 0.00 0.01 0.03 0.10 0.24 0.42 0.53 0.49 0.31 0.26 0.33 0.43 0.56 0.57 0.55 0.71 1.17 1.17 0.86 0.70 0.75 0.89 1.02
0.00 0.00 0.00 0.00 0.00 0.00 0.00 0.01 0.01 0.01 0.02 0.04 0.01 0.00 0.00 0.00 0.01 0.02 0.04 0.07 0.16 0.30 0.43 0.55 0.45 0.28 0.28 0.33 0.42 0.53 0.50 0.50 0.85 1.10 0.90 0.73 0.70 0.75
0.01 0.01 0.00 0.00 0.00 0.00 0.01 0.01 0.02 0.03 0.03 0.04 0.02 0.01 0.00 0.00 0.03 0.05 0.05 0.06 0.06 0.13 0.31 0.49 0.55 0.48 0.31 0.24 0.28 0.31 0.40 0.53 0.54 0.70 1.04 1.04 0.81 0.80
0.01 0.00 0.00 0.00 0.00 0.01 0.02 0.01 0.03 0.04 0.04 0.06 0.05 0.04 0.03 0.04 0.06 0.09 0.10 0.07 0.08 0.09 0.19 0.36 0.52 0.60 0.61 0.38 0.23 0.25 0.32 0.35 0.44 0.54 0.62 0.83 1.09 0.94
0.01 0.00 0.00 0.00 0.01 0.01 0.00 0.00 0.02 0.06 0.11 0.14 0.14 0.13 0.08 0.09 0.14 0.18 0.18 0.18 0.17 0.12 0.16 0.27 0.43 0.54 0.66 0.69 0.51 0.35 0.27 0.32 0.35 0.41 0.51 0.54 0.63 1.00
0.01 0.01 0.01 0.00 0.00 0.01 0.01 0.01 0.01 0.02 0.09 0.19 0.29 0.18 0.18 0.14 0.15 0.20 0.16 0.17 0.14 0.08 0.16 0.26 0.35 0.46 0.50 0.68 0.72 0.52 0.44 0.45 0.48 0.47 0.47 0.54 0.53 0.57
0.01 0.01 0.02 0.01 0.01 0.03 0.07 0.14 0.09 0.07 0.06 0.06 0.16 0.13 0.09 0.08 0.15 0.21 0.27 0.30 0.21 0.07 0.13 0.36 0.27 0.38 0.40 0.46 0.67 0.86 0.74 0.61 0.63 0.69 0.63 0.57 0.64 0.62
0.01 0.02 0.04 0.06 0.04 0.08 0.31 0.40 0.18 0.08 0.05 0.06 0.09 0.09 0.08 0.10 0.16 0.49 0.56 0.61 0.44 0.16 0.15 0.29 0.20 0.29 0.38 0.51 0.65 0.70 0.89 0.96 0.80 0.77 0.79 0.70 0.64 0.69
0.05 0.04 0.03 0.04 0.11 0.19 0.45 0.50 0.43 0.12 0.05 0.09 0.10 0.07 0.05 0.09 0.11 0.38 0.54 0.67 0.47 0.36 0.13 0.31 0.19 0.26 0.51 0.52 0.52 0.71 0.82 0.86 0.94 0.87 0.76 0.78 0.75 0.75
0.10 0.06 0.07 0.20 0.28 0.22 0.26 0.42 0.39 0.17 0.14 0.19 0.20 0.19 0.17 0.16 0.17 0.22 0.36 0.62 0.59 0.36 0.05 0.34 0.33 0.22 0.41 0.45 0.57 0.63 0.74 0.90 0.95 1.02 0.97 0.84 0.78 0.74
0.23 0.17 0.23 0.18 0.19 0.17 0.20 0.29 0.24 0.24 0.38 0.43 0.40 0.30 0.30 0.26 0.22 0.24 0.26 0.30 0.32 0.33 0.17 0.56 0.73 0.28 0.41 0.45 0.41 0.61 0.77 0.93 1.13 0.97 1.00 1.05 0.98 0.92
0.28 0.25 0.18 0.16 0.15 0.16 0.18 0.25 0.30 0.52 0.56 0.52 0.41 0.27 0.21 0.20 0.20 0.28 0.33 0.40 0.40 0.40 0.34 0.44 0.41 0.24 0.37 0.45 0.42 0.49 0.76 0.89 0.82 0.78 0.84 0.85 0.81 0.76
0.17 0.17 0.20 0.20 0.18 0.25 0.30 0.30 0.49 0.57 0.51 0.47 0.33 0.27 0.28 0.31 0.33 0.33 0.39 0.44 0.78 0.74 0.47 0.37 0.31 0.39 0.47 0.31 0.26 0.34 0.37 0.62 0.77 0.75 0.73 0.79 0.81 0.74
0.27 0.31 0.24 0.19 0.18 0.19 0.24 0.19 0.21 0.21 0.30 0.30 0.31 0.28 0.33 0.28 0.30 0.34 0.37 0.32 0.53 0.37 0.46 0.44 0.41 0.42 0.43 0.42 0.54 0.33 0.37 0.47 0.59 0.64 0.71 0.73 0.76 0.90
0.42 0.32 0.25 0.26 0.28 0.26 0.31 0.32 0.22 0.22 0.21 0.25 0.33 0.30 0.35 0.42 0.33 0.30 0.37 0.44 0.36 0.34 0.31 0.31 0.40 0.72 0.71 0.46 0.32 0.46 0.90 0.83 0.61 0.44 0.49 0.61 0.71 0.74
0.47 0.34 0.33 0.35 0.34 0.31 0.30 0.32 0.36 0.40 0.34 0.36 0.40 0.39 0.32 0.32 0.40 0.31 0.33 0.45 0.41 0.31 0.36 0.40 0.42 0.48 0.68 0.79 0.37 0.26 0.46 0.41 0.40 0.38 0.45 0.57 0.74 0.69
0.26 0.28 0.29 0.26 0.24 0.20 0.20 0.24 0.25 0.28 0.29 0.28 0.37 0.33 0.31 0.30 0.32 0.31 0.31 0.34 0.36 0.30 0.26 0.27 0.30 0.30 0.41 0.46 0.53 0.33 0.27 0.24 0.31 0.36 0.44 0.51 0.55 0.57
0.21 0.23 0.25 0.25 0.20 0.18 0.20 0.22 0.26 0.28 0.28 0.29 0.31 0.30 0.26 0.28 0.24 0.23 0.23 0.22 0.22 0.24 0.26 0.22 0.19 0.19 0.26 0.34 0.47 0.48 0.48 0.30 0.20 0.26 0.31 0.50 0.51 0.41
0.26 0.25 0.21 0.23 0.24 0.21 0.20 0.21 0.21 0.21 0.21 0.22 0.26 0.27 0.28 0.30 0.28 0.27 0.25 0.24 0.22 0.18 0.16 0.15 0.18 0.16 0.26 0.30 0.44 0.39 0.40 0.46 0.26 0.19 0.24 0.33 0.42 0.48
0.26 0.26 0.21 0.20 0.21 0.23 0.23 0.22 0.19 0.20 0.22 0.23 0.23 0.25 0.29 0.30 0.28 0.28 0.27 0.24 0.24 0.21 0.17 0.19 0.18 0.13 0.15 0.12 0.25 0.34 0.20 0.25 0.29 0.19 0.17 0.21 0.21 0.25

GFSNE_prec_precacc_087.txt.gz
Total_Precipitation_Accumulation
0.53 0.47 0.38 0.31 0.26 0.19 0.18 0.24 0.37 0.21 0.02 0.00 0.02 0.05 0.11 0.15 0.21 0.35 0.47 0.44 0.37 0.35 0.38 0.33 0.25 0.28 0.50 0.62 0.68 0.81 1.02 1.06 0.87 0.74 0.64 0.65 0.77 0.84
0.30 0.21 0.14 0.10 0.08 0.09 0.10 0.08 0.09 0.16 0.09 0.00 0.00 0.00 0.00 0.03 0.09 0.19 0.40 0.51 0.34 0.29 0.35 0.41 0.44 0.43 0.39 0.59 0.87 0.92 0.95 1.05 1.04 1.00 0.98 0.75 0.71 0.81
0.08 0.05 0.03 0.02 0.01 0.01 0.02 0.03 0.05 0.07 0.04 0.00 0.00 0.00 0.00 0.01 0.03 0.10 0.22 0.43 0.54 0.38 0.27 0.33 0.42 0.48 0.53 0.48 0.52 0.86 1.21 1.09 0.88 0.78 0.80 0.89 0.89 0.81
0.02 0.01 0.00 0.00 0.00 0.00 0.01 0.01 0.01 0.01 0.03 0.02 0.00 0.00 0.00 0.00 0.01 0.03 0.10 0.24 0.42 0.53 0.49 0.31 0.26 0.33 0.43 0.56 0.57 0.56 0.72 1.18 1.18 0.86 0.70 0.75 0.89 1.02
0.03 0.03 0.01 0.01 0.00 0.00 0.00 0.01 0.01 0.01 0.02 0.04 0.01 0.00 0.00 0.00 0.01 0.02 0.04 0.07 0.16 0.30 0.43 0.55 0.45 0.28 0.28 0.33 0.42 0.53 0.50 0.51 0.85 1.10 0.90 0.73 0.70 0.75
0.04 0.02 0.02 0.01 0.00 0.00 0.01 0.01 0.02 0.03 0.03 0.04 0.02 0.01 0.00 0.00 0.03 0.05 0.05 0.06 0.06 0.13 0.31 0.49 0.55 0.48 0.31 0.24 0.28 0.32 0.40 0.53 0.54 0.70 1.04 1.04 0.81 0.80
0.04 0.03 0.01 0.01 0.00 0.01 0.02 0.01 0.03 0.04 0.04 0.06 0.05 0.04 0.03 0.04 0.06 0.09 0.10 0.07 0.08 0.09 0.19 0.36 0.52 0.60 0.61 0.38 0.23 0.25 0.32 0.35 0.44 0.54 0.62 0.83 1.09 0.94
0.07 0.02 0.01 0.01 0.01 0.01 0.00 0.00 0.02 0.06 0.11 0.14 0.14 0.13 0.08 0.09 0.14 0.18 0.18 0.18 0.17 0.12 0.16 0.27 0.43 0.54 0.66 0.69 0.51 0.35 0.27 0.32 0.35 0.41 0.51 0.54 0.63 1.00
0.03 0.03 0.01 0.00 0.00 0.01 0.01 0.01 0.01 0.02 0.09 0.19 0.29 0.18 0.18 0.14 0.15 0.20 0.16 0.17 0.14 0.08 0.16 0.26 0.35 0.46 0.50 0.68 0.72 0.52 0.44 0.45 0.48 0.47 0.47 0.54 0.53 0.57
0.01 0.01 0.02 0.01 0.01 0.03 0.07 0.14 0.09 0.07 0.06 0.06 0.16 0.13 0.09 0.08 0.15 0.21 0.27 0.31 0.21 0.07 0.13 0.37 0.27 0.38 0.40 0.46 0.67 0.86 0.74 0.61 0.63 0.69 0.63 0.57 0.64 0.62
0.01 0.02 0.04 0.06 0.04 0.08 0.31 0.40 0.18 0.08 0.05 0.06 0.09 0.09 0.08 0.10 0.16 0.49 0.57 0.61 0.44 0.16 0.15 0.30 0.21 0.29 0.38 0.51 0.65 0.70 0.89 0.96 0.80 0.77 0.79 0.70 0.64 0.69
0.05 0.04 0.03 0.04 0.11 0.19 0.45 0.50 0.43 0.12 0.05 0.09 0.10 0.07 0.05 0.09 0.11 0.38 0.54 0.68 0.47 0.37 0.13 0.32 0.21 0.28 0.54 0.52 0.52 0.71 0.82 0.86 0.94 0.87 0.76 0.78 0.75 0.75
0.10 0.06 0.07 0.20 0.28 0.22 0.26 0.42 0.39 0.17 0.14 0.19 0.20 0.19 0.17 0.16 0.17 0.23 0.36 0.64 0.61 0.38 0.05 0.36 0.35 0.23 0.43 0.46 0.57 0.63 0.74 0.90 0.95 1.02 0.97 0.84 0.78 0.74
0.23 0.17 0.23 0.18 0.19 0.17 0.20 0.29 0.24 0.24 0.38 0.43 0.40 0.30 0.30 0.26 0.22 0.24 0.26 0.31 0.34 0.35 0.17 0.60 0.81 0.31 0.46 0.50 0.43 0.61 0.77 0.93 1.13 0.97 1.00 1.05 0.98 0.92
0.28 0.25 0.18 0.16 0.15 0.16 0.18 0.25 0.30 0.52 0.56 0.52 0.41 0.27 0.21 0.20 0.20 0.28 0.33 0.40 0.41 0.40 0.34 0.48 0.47 0.27 0.43 0.49 0.43 0.49 0.76 0.89 0.82 0.78 0.84 0.85 0.81 0.76
0.17 0.17 0.20 0.20 0.18 0.25 0.30 0.30 0.49 0.57 0.51 0.47 0.33 0.27 0.28 0.31 0.33 0.33 0.39 0.44 0.78 0.75 0.47 0.40 0.38 0.50 0.56 0.34 0.27 0.34 0.37 0.63 0.77 0.75 0.73 0.79 0.81 0.74
0.27 0.31 0.24 0.19 0.18 0.19 0.24 0.19 0.21 0.21 0.30 0.30 0.32 0.28 0.33 0.28 0.30 0.34 0.37 0.32 0.54 0.37 0.46 0.45 0.44 0.47 0.47 0.45 0.56 0.33 0.37 0.47 0.59 0.64 0.71 0.73 0.76 0.90
0.42 0.32 0.25 0.26 0.28 0.26 0.31 0.32 0.22 0.22 0.21 0.25 0.33 0.30 0.35 0.42 0.34 0.30 0.37 0.44 0.37 0.37 0.35 0.34 0.44 0.78 0.73 0.47 0.33 0.46 0.90 0.83 0.61 0.44 0.49 0.61 0.71 0.74
0.48 0.35 0.34 0.35 0.35 0.31 0.30 0.32 0.36 0.40 0.34 0.36 0.40 0.39 0.32 0.32 0.40 0.31 0.33 0.45 0.42 0.33 0.44 0.52 0.56 0.58 0.69 0.79 0.37 0.26 0.46 0.41 0.40 0.38 0.45 0.57 0.74 0.69
0.29 0.31 0.31 0.27 0.24 0.20 0.20 0.24 0.25 0.28 0.29 0.28 0.37 0.33 0.31 0.30 0.32 0.31 0.31 0.34 0.36 0.31 0.26 0.30 0.37 0.38 0.43 0.46 0.53 0.33 0.27 0.24 0.31 0.36 0.44 0.51 0.55 0.57
0.21 0.23 0.26 0.25 0.21 0.18 0.20 0.22 0.26 0.28 0.28 0.29 0.31 0.30 0.26 0.28 0.24 0.23 0.23 0.22 0.22 0.25 0.27 0.24 0.24 0.28 0.36 0.37 0.47 0.48 0.48 0.30 0.20 0.26 0.31 0.50 0.51 0.41
0.26 0.26 0.21 0.23 0.24 0.21 0.20 0.21 0.21 0.21 0.21 0.22 0.26 0.27 0.28 0.30 0.28 0.27 0.25 0.24 0.22 0.19 0.19 0.17 0.21 0.23 0.31 0.30 0.44 0.39 0.40 0.46 0.26 0.19 0.24 0.33 0.42 0.48
0.27 0.27 0.22 0.20 0.21 0.23 0.23 0.22 0.19 0.20 0.22 0.23 0.23 0.25 0.29 0.30 0.28 0.28 0.27 0.24 0.24 0.22 0.18 0.20 0.22 0.21 0.18 0.12 0.25 0.34 0.20 0.25 0.29 0.19 0.17 0.21 0.21 0.25